Location: Skalnate Pleso
(49.1889°N, 20.2450°E)
Time: 15:02:24
(UTC+01:00)

CZ-2C R/B - Visible Passes

Search period start: 18 February 2020 00:00
Search period end: 28 February 2020 00:00
Orbit: 669 x 783 km, 98.1° (Epoch: 17 February)

Date Brightness Start Highest point End Pass type
(mag) Time Alt. Az. Time Alt. Az. Time Alt. Az.
18 Feb 4.0 03:14:23 10° NNE 03:19:03 32° E 03:19:53 31° ESE visible
18 Feb 2.9 04:52:30 10° N 04:57:21 41° WNW 04:59:16 29° WSW visible
19 Feb 5.2 02:28:01 10° ENE 02:30:23 13° E 02:31:23 12° E visible
19 Feb 2.5 04:04:11 10° NNE 04:09:25 84° ESE 04:10:46 51° S visible
19 Feb 4.0 05:43:34 10° NNW 05:46:59 18° WNW 05:50:10 11° W visible
20 Feb 4.0 03:16:25 10° NNE 03:21:07 34° E 03:22:17 30° ESE visible
20 Feb 3.0 04:54:35 10° N 04:59:24 39° WNW 05:01:40 25° WSW visible
21 Feb 5.2 02:29:57 10° NE 02:32:28 14° E 02:33:47 12° ESE visible
21 Feb 2.4 04:06:15 10° NNE 04:11:28 87° ESE 04:13:11 44° SSW visible
21 Feb 4.0 05:45:43 10° NNW 05:48:59 17° NW 05:52:15 10° W visible
22 Feb 3.9 03:18:28 10° NNE 03:23:12 35° E 03:24:41 29° SE visible
22 Feb 3.0 04:56:41 10° N 05:01:26 37° WNW 05:04:04 22° WSW visible
23 Feb 5.1 02:31:53 10° NE 02:34:33 14° E 02:36:11 12° ESE visible
23 Feb 2.4 04:08:19 10° NNE 04:13:32 89° W 04:15:35 37° SSW visible
23 Feb 4.0 05:47:52 10° NNW 05:51:01 17° NW 05:54:08 10° W visible
24 Feb 3.8 03:20:30 10° NNE 03:25:16 36° E 03:27:04 28° SE visible
24 Feb 3.1 04:58:47 10° N 05:03:28 36° WNW 05:06:28 19° WSW visible
25 Feb 5.1 02:33:50 10° NE 02:36:38 15° E 02:38:34 12° ESE visible
25 Feb 2.4 04:10:23 10° NNE 04:15:35 86° WNW 04:17:58 32° SSW visible
25 Feb 4.1 05:50:01 10° NNW 05:53:03 16° NW 05:56:01 10° W visible
26 Feb 3.8 03:22:33 10° NNE 03:27:20 38° E 03:29:28 26° SE visible
26 Feb 3.1 05:00:53 10° N 05:05:30 34° WNW 05:08:51 16° WSW visible
27 Feb 5.1 02:35:48 10° NE 02:38:42 15° E 02:40:58 12° ESE visible
27 Feb 2.3 04:12:28 10° NNE 04:17:38 83° WNW 04:20:21 28° SSW visible
27 Feb 4.1 05:52:11 10° NNW 05:55:03 15° NW 05:57:53 10° W visible
